Location: Clarion
(42.7316°N, 93.7330°W)
Time: 09:52:34
(UTC+00:00)

SeaSat 1 - Pass Details

Date: 22 April 2026
Orbit: 736 x 740 km, 108.0° (Epoch: 17 May)

Event Time Altitude Azimuth Distance (km) Brightness Sun altitude
Exits shadow 05:20:44 36° 347° (NNW) 1,168 3.8 -33.7°
Drops below altitude 10° 05:23:37 10° 338° (NNW) 2,256 5.7 -33.9°
Sets 05:25:54 0° 336° (NNW) 3,183 6.7 -34.0°
